Regional Weather Roundup
Issued by NWS

Home | Current Version | Previous Version | Text Only | Print | Product List | Glossary On
Versions: 1 2 3 4 5 6 7 8 9 10 11 12 13 14 15 16 17 18 19 20 21 22 23 24 25 26 27 28 29 30 31 32 33 34 35 36 37 38 39 40 41 42 43 44 45 46 47 48 49 50
000
ASUS43 KLSX 230257
RWRMO

WEATHER SUMMARY FOR MISSOURI
NATIONAL WEATHER SERVICE SPRINGFIELD MO
900 PM CST WED NOV 22 2017

NOTE: "FAIR" INDICATES FEW OR NO CLOUDS BELOW 12,000 FEET WITH NO
       SIGNIFICANT WEATHER AND/OR OBSTRUCTIONS TO VISIBILITY.
       CURRENT SKY AND/OR WEATHER CONDITIONS ARE NOT AVAILABLE FOR
       CHILLICOTHE AND FARMINGTON.

MOZ001>031-035>038-043-044-053-054-230400-
...NORTHERN AND WESTERN MISSOURI...

CITY           SKY/WX    TMP DP  RH WIND       PRES   REMARKS
KANSAS CTY INT PTCLDY    33  19  56 S9        30.19S WCI  25
LEE`S SUMMIT   PTCLDY    36  19  50 SW10      30.19F WCI  28
ST JOSEPH      PTCLDY    32  20  61 S7        30.17F WCI  26
CHILLICOTHE      N/A     32  19  58 S6        30.20F WCI  26

$$
MOZ066>068-077>081-088>096-101>105-230400-
...SOUTHWEST MISSOURI...

CITY           SKY/WX    TMP DP  RH WIND       PRES   REMARKS
SPRINGFIELD    CLOUDY    27  20  75 S3        30.23F
JOPLIN         CLOUDY    32  23  69 SE3       30.25S

$$
MOZ032>034-039>042-045>050-055>058-069>072-230400-
...CENTRAL MISSOURI...

CITY           SKY/WX    TMP DP  RH WIND       PRES   REMARKS
COLUMBIA       NOT AVBL
JEFFERSON CITY CLOUDY    31  18  58 SE5       30.25F WCI  26
ROLLA          CLOUDY    31  15  52 SE5       30.24F WCI  26
SEDALIA        CLOUDY    33  19  56 SW6       30.23F WCI  28
WARRENSBURG    PTCLDY    32  21  64 S5        30.21F WCI  27

$$
MOZ051-052-059>065-230400-
...EAST CENTRAL MISSOURI...

CITY           SKY/WX    TMP DP  RH WIND       PRES   REMARKS
ST LOUIS INTL  CLOUDY    35  21  56 S5        30.26S

$$
MOZ072>076-082>087-097>100-106>115-230400-
...SOUTH CENTRAL AND SOUTHEAST MISSOURI...

CITY           SKY/WX    TMP DP  RH WIND       PRES   REMARKS
CAPE GIRARDEAU CLOUDY    26  23  88 SE5       30.26F WCI  20
POPLAR BLUFF   CLEAR     28  24  85 SE5       30.25F WCI  23
WEST PLAINS    PTCLDY    29  17  61 CALM      30.25R

$$


USA.gov is the U.S. government's official web portal to all federal, state and local government web resources and services.